Melbourne, FL

4:52 PM EDT on March 28, 2017 (GMT -0400)
Melbourne International

Weather History for KMLB - May, 2013

Change the Weather History Date:

Monday, May 6, 2013

  Actual Average Record
Temperature  
Mean Temperature 71 °F 74 °F  
Max Temperature 83 °F 84 °F 92 °F (1952)
Min Temperature 59 °F 65 °F 49 °F (1963)
Degree Days  
Heating Degree Days 0 0  
Month to date heating degree days 0 0  
Since 1 July heating degree days 463 576  
Cooling Degree Days 6 9  
Month to date cooling degree days 46 53  
Year to date cooling degree days 580 428  
Growing Degree Days 20 (Base 50)    
Moisture  
Dew Point 53 °F    
Average Humidity 60    
Maximum Humidity 84    
Minimum Humidity 36    
Precipitation  
Precipitation 0.00 in 0.08 in 0.54 in (2007)
Month to date precipitation 1.58 0.39  
Year to date precipitation 10.52 10.60  
Sea Level Pressure  
Sea Level Pressure 29.95 in    
Wind  
Wind Speed 9 mph (WSW)    
Max Wind Speed 20 mph    
Max Gust Speed 28 mph    
Visibility 10 miles    
Events      
T = Trace of Precipitation, MM = Missing Value Source: NWS Daily Summary

Daily Weather History Graph

Daily Weather History Graph

Search for Another Location

Airport or City:

Trip Planner

Search our weather history database for the weather conditions in past years. The results will help you decide how hot, cold, wet, or windy it might be!

Date:

Astronomy

May. 06, 2013 Rise Set
Actual Time 6:38 AM EDT 8:00 PM EDT
Civil Twilight 6:13 AM EDT 8:25 PM EDT
Nautical Twilight 5:43 AM EDT 8:55 PM EDT
Astronomical Twilight 5:12 AM EDT 9:26 PM EDT
Moon 4:23 AM EDT (5/6) 5:12 PM EDT (5/6)
Length of Visible Light 14h 12m
Length of Day
13h 21m
Waning Crescent, 11% of the Moon is Illuminated
May 6
Waning Crescent
May 9
New
May 18
First Quarter
May 25
Full
May 31
Last Quarter

Hourly Weather History & Observations

Time (EDT) Temp. Heat Index Dew Point Humidity Pressure Visibility Wind Dir Wind Speed Gust Speed Precip Events Conditions
12:53 AM 60.1 °F - 50.0 °F 69% 29.94 in 10.0 mi West 9.2 mph - N/A   Clear
1:53 AM 61.0 °F - 50.0 °F 67% 29.93 in 10.0 mi West 8.1 mph - N/A   Clear
2:53 AM 60.1 °F - 52.0 °F 75% 29.91 in 10.0 mi WSW 5.8 mph - N/A   Clear
3:53 AM 60.1 °F - 53.1 °F 78% 29.92 in 10.0 mi WSW 5.8 mph - N/A   Clear
4:53 AM 59.0 °F - 54.0 °F 83% 29.93 in 10.0 mi WSW 4.6 mph - N/A   Clear
5:53 AM 61.0 °F - 55.9 °F 83% 29.94 in 10.0 mi SW 6.9 mph - N/A   Clear
6:53 AM 62.1 °F - 55.9 °F 80% 29.96 in 10.0 mi SW 6.9 mph - N/A   Clear
7:53 AM 66.0 °F - 57.0 °F 73% 29.98 in 10.0 mi SW 6.9 mph - N/A   Scattered Clouds
8:53 AM 68.0 °F - 59.0 °F 73% 29.99 in 10.0 mi WSW 6.9 mph - N/A   Mostly Cloudy
9:53 AM 71.1 °F - 60.1 °F 68% 29.99 in 10.0 mi WSW 8.1 mph - N/A   Mostly Cloudy
10:53 AM 73.9 °F - 59.0 °F 59% 30.00 in 10.0 mi West 10.4 mph - N/A   Scattered Clouds
11:53 AM 75.9 °F - 57.0 °F 52% 29.99 in 10.0 mi West 9.2 mph - N/A   Scattered Clouds
12:53 PM 79.0 °F - 54.0 °F 42% 29.98 in 10.0 mi WSW 9.2 mph 21.9 mph N/A   Mostly Cloudy
1:53 PM 78.1 °F - 54.0 °F 43% 29.97 in 10.0 mi WSW 13.8 mph 20.7 mph N/A   Scattered Clouds
2:53 PM 80.1 °F 80.0 °F 54.0 °F 40% 29.94 in 10.0 mi WSW 17.3 mph 21.9 mph N/A   Scattered Clouds
3:53 PM 80.1 °F 79.9 °F 53.1 °F 39% 29.92 in 10.0 mi WSW 10.4 mph 21.9 mph N/A   Partly Cloudy
4:53 PM 80.1 °F - 52.0 °F 38% 29.91 in 10.0 mi West 11.5 mph - N/A   Mostly Cloudy
5:53 PM 80.1 °F - 51.1 °F 36% 29.91 in 10.0 mi WSW 16.1 mph 23.0 mph N/A   Scattered Clouds
6:53 PM 77.0 °F - 50.0 °F 39% 29.91 in 10.0 mi SW 11.5 mph - N/A   Partly Cloudy
7:53 PM 75.0 °F - 48.9 °F 40% 29.92 in 10.0 mi West 10.4 mph - N/A   Clear
8:53 PM 71.1 °F - 48.9 °F 45% 29.95 in 10.0 mi West 9.2 mph - N/A   Clear
9:53 PM 64.9 °F - 51.1 °F 61% 29.98 in 10.0 mi West 6.9 mph - N/A   Clear
10:53 PM 63.0 °F - 51.1 °F 65% 30.00 in 10.0 mi WNW 6.9 mph - N/A   Clear
11:53 PM 62.1 °F - 51.1 °F 67% 30.00 in 10.0 mi West 8.1 mph - N/A   Clear